Roseau, MN

7:55 PM CST on November 28, 2014 (GMT -0600)
Roseau Municipal-Billberg | Change Station
CLOSE
Current Station
Airport
Location: Roseau,
Elevation: 1060 ft
Nearby Weather Stations
Active Advisory: Special Statement

Elev 1060 ft 48.86 °N, 95.70 °W | Updated 41 minutes ago

Overcast
Overcast
18 °F
Feels Like 6 °F
N
10
Wind Variable Wind from SE

Today
High -- | Low -- °F
--% Chance of Precip.
Yesterday
High -- | Low -- °F
Precip. -- in
7:51 AM 4:30 PM
Waxing Crescent, 46% visible
Pressure 29.72 in
Visibility 7.0 miles
Clouds Scattered Clouds 2100 ft
Overcast 4000 ft
Windchill 6 °F
Dew Point 12 °F
Humidity 79%
Rainfall 0.00 in
Snow Depth Not available.
UV 0 out of 12
Pollen .10 out of 12
Air Quality Not available.
Flu Activity Not available.
METAR KROX 290114Z AUTO 14009KT 7SM -SN SCT021 OVC040 M08/M11 A2972 RMK AO2

More Conditions Fewer Conditions

Pressure 29.72 in
Visibility 7.0 miles
Clouds Scattered Clouds 2100 ft
Overcast 4000 ft
Windchill 6 °F
Dew Point 12 °F
Humidity 79%
Rainfall 0.00 in
Snow Depth Not available.
UV 0 out of 12
Pollen .10 out of 12
Air Quality Not available.
Flu Activity Not available.
METAR KROX 290114Z AUTO 14009KT 7SM -SN SCT021 OVC040 M08/M11 A2972 RMK AO2

More Conditions Fewer Conditions

10-Day Weather Forecast

Almanac

Astronomy

Nov. 28, 2014 Rise Set
Actual Time
Civil Twilight
Nautical Twilight
Astronomical Twilight
Moon
Length of Visible Light
Length of Day
Tomorrow will be .
, % of the Moon is Illuminated

Today's Extremes

State Highs State Lows

Community

WunderPhotos

Upload Photos

1,774,369 photos uploaded!

WunderBlogs® & News

Nearby

Air Quality

  Air Quality AQ Index Pollutant
Not available.

Snow Depth

Station Depth Elevation

Earthquake Activity

City Distance Mag. Time & Date
Minimum magnitude displayed is 2.5.

Coastal Water Temperatures

Place Temperature

Nearby Weather Stations